Location: ?
(35.4214°N, 139.3011°E)
Time: 22:15:00
(UTC+00:00)

Meteor 2-17 Rocket - Pass Details

Date: 14 July 2020
Orbit: 935 x 956 km, 82.5° (Epoch: 10 August)

Event Time Altitude Azimuth Distance (km) Brightness Sun altitude
Exits shadow 11:42:46 23° 167° (SSE) 1,861 5.5 -18.0°
Maximum altitude 11:46:32 63° 93° (E) 1,040 4.4 -18.5°
Drops below altitude 10° 11:52:29 10° 14° (NNE) 2,651 7.2 -19.4°
Sets 11:55:00 0° 11° (N) 3,599 8.0 -19.7°
